IBE0457 LEBB-LFBD

Flight info

Callsign IBE0457
Flight time N/A
Altitude 20000
Route SSN DCT MAGEC DCT VAVIX
Aircraft B738/M-SDE2E3FGHIRWXY/LB1

Departure

Time 2026-05-05 23:53
Airport Bilbao Airport (LEBB)

Arrival

Time N/A
Airport Bordeaux–Mérignac Airport (LFBD)
Time Latitude Longitude Altitude Speed Heading
2026-05-05 23:24 43.30406 -2.90579 167 ft 0 kts 26°
2026-05-05 23:33 43.30405 -2.90579 166 ft 0 kts 26°
2026-05-05 23:33 43.30401 -2.90582 166 ft 1 kts 41°
2026-05-05 23:33 43.30392 -2.90598 165 ft 2 kts 45°
2026-05-05 23:34 43.30380 -2.90611 165 ft 2 kts 43°
2026-05-05 23:34 43.30370 -2.90625 164 ft 2 kts 44°
2026-05-05 23:34 43.30359 -2.90639 164 ft 1 kts 43°
2026-05-05 23:34 43.30355 -2.90644 164 ft 0 kts 14°
2026-05-05 23:35 43.30349 -2.90643 164 ft 0 kts 319°
2026-05-05 23:35 43.30346 -2.90637 164 ft 1 kts 291°
2026-05-05 23:35 43.30345 -2.90632 164 ft 0 kts 297°
2026-05-05 23:44 43.30351 -2.90648 164 ft 6 kts 297°
2026-05-05 23:44 43.30372 -2.90703 165 ft 5 kts 297°
2026-05-05 23:45 43.30391 -2.90754 166 ft 5 kts 296°
2026-05-05 23:45 43.30405 -2.90806 166 ft 6 kts 280°
2026-05-05 23:45 43.30405 -2.90870 165 ft 7 kts 266°
2026-05-05 23:45 43.30400 -2.90945 164 ft 8 kts 251°
2026-05-05 23:46 43.30351 -2.91008 161 ft 11 kts 206°
2026-05-05 23:46 43.30315 -2.91089 159 ft 10 kts 272°
2026-05-05 23:46 43.30341 -2.91180 158 ft 10 kts 296°
2026-05-05 23:46 43.30376 -2.91275 157 ft 11 kts 295°
2026-05-05 23:47 43.30412 -2.91378 157 ft 12 kts 296°
2026-05-05 23:47 43.30456 -2.91492 155 ft 13 kts 295°
2026-05-05 23:47 43.30501 -2.91621 154 ft 15 kts 295°
2026-05-05 23:47 43.30553 -2.91762 152 ft 17 kts 297°
2026-05-05 23:48 43.30612 -2.91920 149 ft 19 kts 295°
2026-05-05 23:48 43.30673 -2.92088 146 ft 20 kts 298°
2026-05-05 23:48 43.30741 -2.92277 140 ft 22 kts 297°
2026-05-05 23:48 43.30796 -2.92440 135 ft 14 kts 272°
2026-05-05 23:49 43.30768 -2.92499 133 ft 5 kts 197°
2026-05-05 23:49 43.30748 -2.92500 133 ft 0 kts 168°
2026-05-05 23:51 43.30729 -2.92494 133 ft 3 kts 165°
2026-05-05 23:51 43.30701 -2.92482 133 ft 4 kts 162°
2026-05-05 23:51 43.30674 -2.92467 134 ft 4 kts 156°
2026-05-05 23:51 43.30644 -2.92449 134 ft 6 kts 153°
2026-05-05 23:52 43.30595 -2.92378 136 ft 14 kts 118°
2026-05-05 23:52 43.30525 -2.92209 140 ft 29 kts 110°
2026-05-05 23:52 43.30316 -2.91647 149 ft 110 kts 117°
2026-05-05 23:52 43.29864 -2.90336 287 ft 191 kts 114°
2026-05-05 23:53 43.29362 -2.88565 1380 ft 215 kts 108°
2026-05-05 23:53 43.28823 -2.86714 2780 ft 215 kts 118°
2026-05-05 23:53 43.28064 -2.84987 3945 ft 221 kts 122°
2026-05-05 23:53 43.27268 -2.83156 5065 ft 230 kts 121°
2026-05-05 23:54 43.26516 -2.81231 6189 ft 238 kts 119°
2026-05-05 23:54 43.25772 -2.79208 7317 ft 243 kts 119°
2026-05-05 23:54 43.25014 -2.77133 7960 ft 250 kts 119°
2026-05-05 23:54 43.24361 -2.74921 7955 ft 252 kts 103°
2026-05-05 23:55 43.24513 -2.72534 7935 ft 254 kts 70°
2026-05-05 23:55 43.25477 -2.70474 7963 ft 255 kts 46°
2026-05-05 23:55 43.26761 -2.68812 7950 ft 256 kts 40°
2026-05-05 23:55 43.28109 -2.67192 7942 ft 254 kts 39°
2026-05-05 23:56 43.29403 -2.65546 7938 ft 256 kts 46°
2026-05-05 23:56 43.30386 -2.63526 7943 ft 261 kts 69°
2026-05-05 23:56 43.30684 -2.61017 7943 ft 276 kts 90°
2026-05-05 23:56 43.30688 -2.58263 7951 ft 294 kts 92°
2026-05-05 23:57 43.30679 -2.55443 7980 ft 298 kts 91°
2026-05-05 23:57 43.30695 -2.52589 7957 ft 297 kts 90°
2026-05-05 23:57 43.30725 -2.49759 7949 ft 298 kts 90°
2026-05-05 23:57 43.30761 -2.46918 7969 ft 298 kts 90°
2026-05-05 23:58 43.30798 -2.44063 7956 ft 300 kts 90°
2026-05-05 23:58 43.30835 -2.41217 7966 ft 299 kts 89°
2026-05-05 23:58 43.30872 -2.38359 7965 ft 298 kts 89°
2026-05-05 23:58 43.30910 -2.35504 7951 ft 299 kts 90°
2026-05-05 23:59 43.30947 -2.32664 7997 ft 300 kts 90°
2026-05-05 23:59 43.30988 -2.29803 7973 ft 298 kts 90°
2026-05-05 23:59 43.31028 -2.26975 7959 ft 298 kts 90°
2026-05-05 23:59 43.31052 -2.24119 7966 ft 298 kts 91°
2026-05-06 00:00 43.31061 -2.21276 7978 ft 298 kts 91°
2026-05-06 00:00 43.31068 -2.18423 7972 ft 299 kts 91°
2026-05-06 00:00 43.31076 -2.15625 7951 ft 297 kts 91°
2026-05-06 00:00 43.31088 -2.12752 7980 ft 298 kts 91°
2026-05-06 00:01 43.31098 -2.09917 7968 ft 297 kts 91°
2026-05-06 00:01 43.31107 -2.07073 7949 ft 299 kts 91°
2026-05-06 00:01 43.31116 -2.04238 7944 ft 297 kts 91°
2026-05-06 00:01 43.31125 -2.01358 7948 ft 297 kts 90°
2026-05-06 00:02 43.31134 -1.98519 7983 ft 299 kts 90°
2026-05-06 00:02 43.31142 -1.95687 7989 ft 297 kts 90°
2026-05-06 00:02 43.31148 -1.92873 7961 ft 297 kts 91°
2026-05-06 00:02 43.31153 -1.90057 7958 ft 296 kts 91°
2026-05-06 00:03 43.31160 -1.87169 8069 ft 313 kts 90°
2026-05-06 00:03 43.31333 -1.84182 9301 ft 320 kts 79°
2026-05-06 00:03 43.32122 -1.81432 10699 ft 317 kts 54°
2026-05-06 00:03 43.33529 -1.79156 11881 ft 319 kts 43°
2026-05-06 00:04 43.35103 -1.77039 12979 ft 325 kts 41°
2026-05-06 00:04 43.36726 -1.74897 14040 ft 331 kts 41°
2026-05-06 00:04 43.38366 -1.72671 15180 ft 333 kts 42°
2026-05-06 00:04 43.39980 -1.70417 16182 ft 339 kts 43°